NOAA NWS Hourly Roundups by Site

Regional Weather Roundup for San Diego, CA

To Select Another Site Choose from List

Select Site:  

000
ASUS46 KSGX 201711
RWRSGX

SAN DIEGO HOURLY WEATHER ROUNDUP
NATIONAL WEATHER SERVICE SAN DIEGO CA
1000 AM PDT SUN SEP 20 2020

NOTE: "FAIR" INDICATES FEW OR NO CLOUDS BELOW 12,000 FEET WITH NO
SIGNIFICANT WEATHER AND/OR OBSTRUCTIONS TO VISIBILITY.

CAZ042-043-060-061-PZZ750-775-201800-

GREATER SAN DIEGO AREA

CITY           SKY/WX    TMP DP  RH WIND       PRES   REMARKS
SAN DIEGO AP   MOSUNNY   75  62  64 VRB7      29.92R
BROWN FIELD    SUNNY     73  63  70 VRB3      29.91R
MIRAMAR MCAS   SUNNY     75  64  68 VRB6      29.91R
MONTGOMERY FLD SUNNY     77  62  59 W6        29.91R
GILLESPIE FLD  SUNNY     72  63  73 NW6       29.91R
LEMON GROVE      N/A     71  64  77 CALM      29.88R

$$

NORTH SAN DIEGO COUNTY

CITY           SKY/WX    TMP DP  RH WIND       PRES   REMARKS
CAMP PENDLETON SUNNY     75  59  57 VRB3      29.90S
OCEANSIDE AP   SUNNY     73  64  73 SW8       29.90R
OCEANSIDE HBR    N/A     68  64  87 S7        29.97R
VISTA            N/A     69  63  83 CALM      29.88R
CARLSBAD       SUNNY     71  61  70 SW6       29.90S
ENCINITAS        N/A     70  65  83 CALM        N/A
LA JOLLA SCRIP   N/A     70  64  82 CALM      29.90R
FALLBROOK      PTSUNNY   64  64 100 CALM      29.92S FOG
ESCONDIDO        N/A     74  63  69 SW2       29.89R
SAN MARCOS       N/A     69  64  82 W3        29.93R
RANCHO BERNARD   N/A     69  64  82 SW2       29.89R
POWAY            N/A     73  65  76 N2        29.91R

$$

EAST SAN DIEGO COUNTY

CITY           SKY/WX    TMP DP  RH WIND       PRES   REMARKS
RAMONA         SUNNY     79  55  43 W10       29.92R
LA MESA          N/A     71  63  76 CALM      29.84R
JAMUL            N/A     72  63  73 N1        29.87R
DESCANSO N       N/A     88  48  25 SW3       29.87S
CAMPO            N/A     85  44  23 CALM      29.95S

$$

ORANGE COUNTY AND THE LOS ANGELES BASIN

CITY           SKY/WX    TMP DP  RH WIND       PRES   REMARKS
JOHN WAYNE AP  MOSUNNY   71  60  68 CALM      29.91R
LAGUNA BEACH     N/A     71  65  82 S1        29.89S
LAKE FOREST FR   N/A     69  58  67 CALM      29.78S
HUNTINGTON BCH   N/A     69  66  90 SW1       29.91R
LOS ALAMITOS   PTSUNNY   79  61  53 VRB3      29.92R
FULLERTON      SUNNY     71  61  70 CALM      29.90S
LONG BEACH     MOSUNNY   70  62  76 CALM      29.91R
L.A. AP        MOSUNNY   67  61  81 S6        29.90S HAZE
L.A. DOWNTOWN  SUNNY     72  61  68 CALM      29.90S HAZE

$$

THE INLAND EMPIRE

CITY           SKY/WX    TMP DP  RH WIND       PRES   REMARKS
CORONA         SUNNY     74  58  57 W3        29.91S
UPLAND AP      FAIR      79  48  34 CALM      29.93S
CHINO          SUNNY     79  55  43 VRB3      29.92R
ONTARIO        SUNNY     78  52  40 VRB3      29.91S
SAN BERNARDINO MOSUNNY   82  41  23 CALM      29.92S
RIVERSIDE AP   SUNNY     77  51  40 SW3       29.91R
MARCH ARB      SUNNY     84  44  24 CALM      29.93R
HEMET AP       FAIR      82  45  27 S3        29.93S
FRENCH VALLEY  FAIR      79  48  34 CALM      29.93S

$$

SAN BERNARDINO AND RIVERSIDE COUNTY MOUNTAINS

CITY           SKY/WX    TMP DP  RH WIND       PRES   REMARKS
BIG BEAR AP    SUNNY     70  37  30 W8        30.25S
BIG BEAR LAKE    N/A     71  41  33 S3        29.91R
LK ARROWHEAD N   N/A     74  47  38 W3        29.80R
WRIGHTWOOD       N/A     73  35  24 CALM      29.84R
IDYLLWILD        N/A     71  41  33 SE3       29.81R
GARNER VALLEY    N/A     73  47  39 S1        29.86R
TORO PEAK        N/A     59  30  33 S15         N/A

$$

SOUTHERN DESERT INCLUDING THE COACHELLA VALLEY

CITY           SKY/WX    TMP DP  RH WIND       PRES   REMARKS
PALM SPRINGS   SUNNY     97  50  20 E5        29.84R
THOUSAND PALMS   N/A     95  52  22 N5        29.76R
PALM DESERT      N/A     96  53  23 CALM      31.97S
INDIO            N/A     94  52  23 CALM      29.80R
THERMAL        NOT AVBL
BORREGO AP     FAIR      95  43  16 S5        29.84R
OCOTILLO WELLS   N/A     96  49  20 SE1       29.75R
CANEBRAKE        N/A     94  46  19 S3        29.76R
BLYTHE         SUNNY     91  53  27 VRB5      29.85R
IMPERIAL AP    SUNNY     92  57  30 CALM      29.80R
YUMA AZ        SUNNY     90  58  33 S3        29.83S

$$

UPPER DESERT

CITY           SKY/WX    TMP DP  RH WIND       PRES   REMARKS
VICTORVILLE AP SUNNY    N/A N/A N/A CALM      29.97S
HESPERIA         N/A     80  44  28 S6        29.88R
APPLE VALLEY     N/A     80  51  36 CALM      29.92R
PALMDALE       SUNNY     71  33  24 CALM      30.01R
LANCASTER      SUNNY     71  39  31 CALM      30.00R
EDWARDS AFB    MOSUNNY   67  44  43 CALM      29.98R
GRAY BUTTE AP  FAIR      79 N/A N/A CALM      29.99R
DAGGETT        SUNNY     81  39  22 W13       29.95R
29 PALMS N     SUNNY     85  40  20 NW3       30.01R
29 PALMS JTNP    N/A     87  45  22 CALM      29.77R
NEEDLES        SUNNY     93  40  15 N3        29.87R

$$

REGIONAL REPORTS

CITY           SKY/WX    TMP DP  RH WIND       PRES   REMARKS
LAS VEGAS NV   SUNNY     85  32  15 CALM      29.97R
PHOENIX AZ     MOSUNNY   93  43  17 VRB5      29.90S
TIJUANA        SUNNY     72  64  78 NW6       29.94R
ENSENADA NW      N/A     67  32  27 CALM      29.87R

$$

OFFSHORE ISLANDS

CITY           SKY/WX    TMP DP  RH WIND       PRES   REMARKS
CATALINA ARPT  SUNNY     69  59  70 CALM      29.95R
SAN NICOLAS IS CLOUDY    60  58  92 W7        29.92R

$$

MARINE AND OFFSHORE BUOY REPORTS

STATION/POSITION SKY/WX   TEMP    WIND        PRES    VSBY  SWELL
                          AIR SEA DIR/SP/G                  HT/PER/DIR
                          (F)     (DEG/KT/KT) (MB)    (MI)  (FT/S/D)
TANNER BANKS               65     290/ 12/ 16 1013.2R         5/300/ 8
S CLEMENTE BASIN           66                 1012.7R         3/200/15
SAN NICOLAS IS.               64                N/A           2/170/14
SO. S. ROSA ISLA           58 66              1013.8R         5/300/ 8
W. S. BARBARA CH                  300/ 10/ 12 1013.2R         5/300/ 7
M. S. BARBARA CH           58 62  150/  2/  6 1013.5R         3/270/ 8
S. MONICA BASIN            65 69  140/  6/ 10 1012.6R         2/190/15
S PEDRO CHANNEL               67                N/A
OCEANSIDE OFFSHR              69                N/A           2/200/14
TORREY PINES OTR              70                N/A           2/190/14
SAN DIEGO BAY                 71              1012.5R
IMPERIAL BEACH                65                N/A           2/230/14
POINT LOMA SOUTH              72                N/A           2/200/15

$$




 

View Past Reports for San Diego, CA.

Products Courtesy of NOAA-NWS
NWS Information Parsing Script by Ken True at Saratoga Weather - Script by SE Lincoln Weather.